This is the latest recevied weather packets stored in our database for station/object EA5JMY-10. If no packets are shown the sender has not sent any weather packets the latest 10 day(s).
| Time | Temp. | Humidity | Pressure | Rain* | Wind** | Luminosity | Snow |
|---|---|---|---|---|---|---|---|
| 1788190799 | 30.56° C | 56% | 1018.6 hPa | - | - | - | - |
| 1788189899 | 31.11° C | 54% | 1018.7 hPa | - | - | - | - |
| 1788188999 | 31.11° C | 54% | 1018.8 hPa | - | - | - | - |
| 1788188099 | 31.11° C | 53% | 1018.8 hPa | - | - | - | - |
| 1788187199 | 31.67° C | 50% | 1019.1 hPa | - | - | - | - |
| 1788186299 | 31.11° C | 49% | 1019.1 hPa | - | - | - | - |
| 1788185399 | 32.22° C | 43% | 1019.3 hPa | - | - | - | - |
| 1788184498 | 32.22° C | 41% | 1019.4 hPa | - | - | - | - |
| 1788183598 | 32.78° C | 43% | 1019.4 hPa | - | - | - | - |
| 1788182697 | 32.22° C | 45% | 1019.7 hPa | - | - | - | - |
| 1788181797 | 31.11° C | 52% | 1019.9 hPa | - | - | - | - |
| 1788180897 | 31.67° C | 52% | 1019.8 hPa | - | - | - | - |
| 1788179997 | 31.11° C | 51% | 1020.1 hPa | - | - | - | - |
| 1788179097 | 31.11° C | 51% | 1020.2 hPa | - | - | - | - |
| 1788178194 | 32.22° C | 46% | 1020.1 hPa | - | - | - | - |
| 1788177293 | 32.78° C | 45% | 1020.3 hPa | - | - | - | - |
| 1788176393 | 33.89° C | 41% | 1020.3 hPa | - | - | - | - |
| 1788175492 | 35.56° C | 39% | 1020.3 hPa | - | - | - | - |
| 1788174592 | 32.78° C | 45% | 1020.3 hPa | - | - | - | - |
| 1788173692 | 32.78° C | 45% | 1020.5 hPa | - | - | - | - |
| 1788172792 | 34.44° C | 42% | 1020.6 hPa | - | - | - | - |
| 1788171892 | 32.22° C | 46% | 1020.7 hPa | - | - | - | - |
| 1788170992 | 33.33° C | 43% | 1020.6 hPa | - | - | - | - |
| 1788170092 | 32.78° C | 44% | 1020.7 hPa | - | - | - | - |
| 1788169192 | 32.22° C | 47% | 1020.6 hPa | - | - | - | - |
* Rain since midnight (hover to see other rain measurements)
** Current wind speed in m/s (hover to see current wind gust speed)